Location: Eaglesham
(55.7833°N, 117.9000°W)
Time: 18:23:59
(UTC+00:00)

ISS - Pass Details

Date: 28 November 2021
Orbit: 413 x 422 km, 51.6° (Epoch: 23 January)

Event Time Altitude Azimuth Distance (km) Brightness Sun altitude
Rises 01:15:12 0° 246° (WSW) 2,382 2.0 -14.2°
Reaches altitude 10° 01:17:24 10° 238° (WSW) 1,515 0.3 -14.5°
Maximum altitude 01:20:34 36° 169° (S) 685 -2.7 -14.9°
Enters shadow 01:22:04 23° 119° (ESE) 940 -2.4 -15.1°
